When you browse on this site, cookies collect data to enhance your experience and personalize the content and advertising you see.
Visit our Privacy Policy to learn more. By continuing to use the site, you agree to this use of cookies and data.
  • In Romania
  • List of Countries
  • For 7 days
  • Water Temperature
  • Satellite Maps
  • Weather Map
  • Weather Widgets
  • user-avatar
    Login

    Hourly Weather San Miguel de Tucumán

    Today, 26 March, Tuesday

    Time Temperature Precipitation Wind Pressure Humidity
    00:00 +16°C° 0.5 mm 1 mps 723 mmHg 95%
    01:00 +16°C° 0.5 mm 1 mps 723 mmHg 95%
    02:00 +16°C° 0 mm 1 mps 723 mmHg 96%
    03:00 +16°C° 0.6 mm 1 mps 723 mmHg 96%
    04:00 +16°C° 0.6 mm 1 mps 724 mmHg 97%
    05:00 +16°C° 0.6 mm 1 mps 724 mmHg 97%
    06:00 +16°C° 0.5 mm 1 mps 724 mmHg 97%
    07:00 +16°C° 0.5 mm 1 mps 724 mmHg 96%
    08:00 +16°C° 0.5 mm 1 mps 725 mmHg 96%
    09:00 +16°C° 0.2 mm 1 mps 725 mmHg 96%
    10:00 +16°C° 0.2 mm 1 mps 725 mmHg 95%
    11:00 +16°C° 0.2 mm 1 mps 725 mmHg 94%
    12:00 +16°C° 0.1 mm 1 mps 725 mmHg 92%
    13:00 +16°C° 0.1 mm 1 mps 724 mmHg 90%
    14:00 +18°C° 0.1 mm 1 mps 724 mmHg 87%
    15:00 +18°C° 0 mm 1 mps 723 mmHg 87%
    16:00 +18°C° 0 mm 1 mps 723 mmHg 86%
    17:00 +18°C° 0 mm 1 mps 723 mmHg 85%
    18:00 +18°C° 0 mm 1 mps 723 mmHg 89%
    19:00 +15°C° 0 mm 0 mps 724 mmHg 92%
    20:00 +14°C° 0 mm 0 mps 724 mmHg 95%
    21:00 +14°C° 0 mm 0 mps 725 mmHg 95%
    22:00 +14°C° 0 mm 0 mps 725 mmHg 96%
    23:00 +14°C° 0 mm 0 mps 726 mmHg 96%

    Tomorrow, 27 March, Wednesday

    Time Temperature Precipitation Wind Pressure Humidity
    00:00 +14°C° 0.2 mm 0 mps 726 mmHg 96%
    01:00 +14°C° 0.2 mm 0 mps 726 mmHg 96%
    02:00 +14°C° 0.2 mm 0 mps 726 mmHg 96%
    03:00 +14°C° 0.1 mm 0 mps 725 mmHg 96%
    04:00 +14°C° 0.1 mm 0 mps 725 mmHg 96%
    05:00 +14°C° 0.1 mm 0 mps 725 mmHg 96%
    06:00 +14°C° 0 mm 0 mps 725 mmHg 95%
    07:00 +15°C° 0 mm 1 mps 725 mmHg 94%
    08:00 +16°C° 0 mm 1 mps 725 mmHg 93%
    09:00 +18°C° 0 mm 1 mps 725 mmHg 88%
    10:00 +19°C° 0 mm 1 mps 726 mmHg 84%
    11:00 +18°C° 0 mm 2 mps 726 mmHg 79%
    12:00 +20°C° 0 mm 2 mps 725 mmHg 75%
    13:00 +21°C° 0 mm 2 mps 724 mmHg 70%
    14:00 +23°C° 0 mm 2 mps 724 mmHg 66%
    15:00 +23°C° 0 mm 2 mps 723 mmHg 68%
    16:00 +23°C° 0 mm 2 mps 723 mmHg 70%
    17:00 +21°C° 0 mm 2 mps 722 mmHg 72%
    18:00 +21°C° 0 mm 1 mps 723 mmHg 79%
    19:00 +19°C° 0 mm 1 mps 723 mmHg 86%
    20:00 +15°C° 0 mm 0 mps 723 mmHg 93%
    21:00 +16°C° 0 mm 0 mps 724 mmHg 92%
    22:00 +16°C° 0 mm 0 mps 724 mmHg 92%
    23:00 +16°C° 0 mm 0 mps 725 mmHg 91%

    Day after tomorrow, 28 March, Thursday

    Time Temperature Precipitation Wind Pressure Humidity
    00:00 +16°C° 0 mm 0 mps 724 mmHg 91%
    01:00 +16°C° 0 mm 0 mps 724 mmHg 91%
    02:00 +16°C° 0 mm 0 mps 724 mmHg 91%
    03:00 +16°C° 0 mm 0 mps 723 mmHg 91%
    04:00 +15°C° 0 mm 0 mps 723 mmHg 91%
    05:00 +15°C° 0 mm 0 mps 723 mmHg 91%
    06:00 +16°C° 0 mm 0 mps 723 mmHg 88%
    07:00 +17°C° 0 mm 0 mps 724 mmHg 85%
    08:00 +20°C° 0 mm 1 mps 724 mmHg 82%
    09:00 +22°C° 0 mm 1 mps 724 mmHg 74%
    10:00 +24°C° 0 mm 2 mps 724 mmHg 67%
    11:00 +26°C° 0 mm 2 mps 724 mmHg 59%
    12:00 +27°C° 0 mm 2 mps 724 mmHg 56%
    13:00 +28°C° 0 mm 2 mps 723 mmHg 54%
    14:00 +29°C° 0 mm 2 mps 722 mmHg 51%
    15:00 +28°C° 0 mm 2 mps 722 mmHg 55%
    16:00 +28°C° 0 mm 2 mps 722 mmHg 58%
    17:00 +27°C° 0 mm 1 mps 721 mmHg 62%
    18:00 +25°C° 0 mm 1 mps 722 mmHg 69%
    19:00 +24°C° 0 mm 1 mps 722 mmHg 76%
    20:00 +22°C° 0 mm 1 mps 722 mmHg 83%
    21:00 +21°C° 0 mm 1 mps 722 mmHg 84%
    22:00 +21°C° 0 mm 1 mps 723 mmHg 85%
    23:00 +20°C° 0 mm 1 mps 723 mmHg 86%

    29 March, Friday

    Time Temperature Precipitation Wind Pressure Humidity
    00:00 +20°C° 0 mm 1 mps 722 mmHg 86%
    01:00 +20°C° 0 mm 1 mps 722 mmHg 86%
    02:00 +20°C° 0 mm 1 mps 722 mmHg 86%
    03:00 +19°C° 0 mm 1 mps 721 mmHg 86%
    04:00 +19°C° 0 mm 1 mps 721 mmHg 87%
    05:00 +17°C° 0 mm 0 mps 720 mmHg 87%
    06:00 +18°C° 0 mm 0 mps 720 mmHg 84%
    07:00 +21°C° 0 mm 1 mps 720 mmHg 81%
    08:00 +22°C° 0 mm 1 mps 721 mmHg 79%
    09:00 +24°C° 0 mm 1 mps 720 mmHg 71%
    10:00 +27°C° 0 mm 2 mps 720 mmHg 63%
    11:00 +29°C° 0 mm 3 mps 720 mmHg 56%
    12:00 +30°C° 0 mm 3 mps 719 mmHg 53%
    13:00 +33°C° 0 mm 3 mps 718 mmHg 50%
    14:00 +34°C° 0 mm 3 mps 717 mmHg 46%
    15:00 +33°C° 0 mm 3 mps 716 mmHg 50%
    16:00 +31°C° 0 mm 3 mps 716 mmHg 55%
    17:00 +30°C° 0 mm 3 mps 715 mmHg 59%
    18:00 +29°C° 0 mm 2 mps 716 mmHg 65%
    19:00 +27°C° 0 mm 2 mps 716 mmHg 72%
    20:00 +25°C° 0 mm 1 mps 716 mmHg 78%
    21:00 +24°C° 0 mm 1 mps 716 mmHg 81%
    22:00 +24°C° 0 mm 1 mps 717 mmHg 83%
    23:00 +23°C° 0 mm 1 mps 717 mmHg 85%

    30 March, Saturday

    Time Temperature Precipitation Wind Pressure Humidity
    00:00 +23°C° 0 mm 1 mps 717 mmHg 85%
    01:00 +23°C° 0 mm 1 mps 716 mmHg 86%
    02:00 +20°C° 0 mm 0 mps 716 mmHg 86%
    03:00 +22°C° 0 mm 1 mps 716 mmHg 84%
    04:00 +22°C° 0 mm 1 mps 716 mmHg 83%
    05:00 +22°C° 0 mm 1 mps 715 mmHg 81%
    06:00 +23°C° 0 mm 1 mps 716 mmHg 78%
    07:00 +24°C° 0 mm 1 mps 716 mmHg 75%
    08:00 +25°C° 0 mm 1 mps 717 mmHg 73%
    09:00 +27°C° 0 mm 1 mps 717 mmHg 70%
    10:00 +28°C° 0 mm 1 mps 717 mmHg 68%
    11:00 +30°C° 0 mm 2 mps 717 mmHg 65%
    12:00 +31°C° 0 mm 2 mps 717 mmHg 61%
    13:00 +32°C° 0 mm 2 mps 717 mmHg 56%
    14:00 +34°C° 0 mm 3 mps 716 mmHg 52%
    15:00 +32°C° 0 mm 2 mps 717 mmHg 54%
    16:00 +32°C° 0 mm 2 mps 717 mmHg 57%
    17:00 +31°C° 0 mm 2 mps 717 mmHg 59%
    18:00 +30°C° 0.1 mm 2 mps 718 mmHg 64%
    19:00 +28°C° 0.1 mm 2 mps 719 mmHg 69%
    20:00 +26°C° 0.1 mm 2 mps 719 mmHg 74%
    21:00 +26°C° 0.7 mm 2 mps 720 mmHg 79%
    22:00 +25°C° 0.7 mm 2 mps 720 mmHg 85%
    23:00 +24°C° 0.7 mm 2 mps 720 mmHg 91%

    31 March, Sunday

    Time Temperature Precipitation Wind Pressure Humidity
    00:00 +24°C° 0 mm 1 mps 720 mmHg 90%
    01:00 +24°C° 0 mm 1 mps 720 mmHg 90%
    02:00 +24°C° 0 mm 1 mps 720 mmHg 90%
    03:00 +23°C° 0.2 mm 1 mps 720 mmHg 90%
    04:00 +23°C° 0.2 mm 1 mps 720 mmHg 91%
    05:00 +23°C° 0.2 mm 1 mps 720 mmHg 91%
    06:00 +24°C° 0 mm 1 mps 720 mmHg 90%
    07:00 +24°C° 0 mm 1 mps 721 mmHg 88%
    08:00 +23°C° 0 mm 0 mps 721 mmHg 87%
    09:00 +26°C° 0.1 mm 1 mps 720 mmHg 81%
    10:00 +27°C° 0.1 mm 2 mps 720 mmHg 76%
    11:00 +29°C° 0.1 mm 2 mps 720 mmHg 70%
    12:00 +29°C° 0.1 mm 2 mps 719 mmHg 67%
    13:00 +30°C° 0.1 mm 2 mps 718 mmHg 65%
    14:00 +30°C° 0.1 mm 2 mps 717 mmHg 62%
    15:00 +30°C° 0 mm 2 mps 717 mmHg 63%
    16:00 +29°C° 0 mm 2 mps 716 mmHg 64%
    17:00 +29°C° 0 mm 2 mps 716 mmHg 65%
    18:00 +28°C° 0 mm 1 mps 716 mmHg 68%
    19:00 +26°C° 0 mm 1 mps 717 mmHg 71%
    20:00 +25°C° 0 mm 1 mps 717 mmHg 74%
    21:00 +25°C° 0 mm 1 mps 717 mmHg 74%
    22:00 +24°C° 0 mm 1 mps 718 mmHg 75%
    23:00 +24°C° 0 mm 1 mps 718 mmHg 75%
    Show more